星链-4062 (STARLINK-4062 )

导读

STARLINK-4062是美国SpaceX公司星链(Starlink)星座中的一颗卫星,于2022年7月24日发射入轨。星链计划旨在构建全球覆盖的低轨卫星互联网,为偏远地区提供高速宽带服务,该卫星属于星链星座组网的一部分,运行在近地轨道,助力实现全球低延迟网络覆盖,支撑星链在民用通信、特殊场景通信等领域的服务落地。

Basic Information
目录编号:
53261
目录名称:
STARLINK-4062
国际标识:
2022-086V
轨道中心:
EARTH
卫星名称:
星链-4062
卫星全名:
星链-4062 (STARLINK-4062 )
卫星状态:
在轨 (已飞行1424 天)
发射日期:
2022-07-24 UTC
国别 :
美国 (US)
星等 :
--
Orbit Information
数据来源 国际轨道数据 AOE轨道数据
星历时间 2026-06-17T10:17:31+0800
12小时前
查看轨道信息
2026-06-11T17:00:00+0800
6天前
查看轨道信息
半长轴 6917.869km 6917.92km
偏心率 0.0001366 0.0001358
轨道倾角 53.161° 53.161°
近地点辐角 85.476° 81.956°
升交点赤经 107.777° 133.494°
平近点角 274.639° 148.545°
近地点 538.787km 538.843km
远地点 540.677km 540.723km
周期 95.437分钟 95.438分钟
每日圈数 15.088438 15.088271
Detailed Information
固有亮度:
5
最大亮度:
2.5
卫星平台:
Starlink v1.5
覆盖范围:
全球
运营商:
太空探索技术公司
运营商所在国:
美国
制造商(研发单位):
太空探索技术公司
制造商所在国:
美国
使用方式:
暂无
Satellite Introduction
星链(Starlink)计划是由太空探索技术公司(SpaceX)提出的一个巨型低轨卫星互联网星座项目,计划在2019年至2024年间在太空搭建由约1.2万颗卫星组成的“星链”网络,其中1584颗将部署在地球上空550千米处的近地轨道,并从2020年开始工作。该卫星仍在工作。
2D Orbit Map
3D Orbit Map
Orbit Altitude Analysis Chart
Orbit Inclination Analysis Chart
Orbit Comprehensive Analysis Chart
View Comprehensive Chart